SCP
0 0 0 0 0 0 0 0 0 0 0 0 0 0 0 0 0 0 0 0 0 0 0 0 0 0 0 0 0 0 0 0 0 0 0 0 0 0 0 0 0 0 0 0
0 0 0 0 0 0 0 0 0 0 0 0 0 0 0 0 0 0 0 0 0 0 0 0 0 0 0 0 0 0 0 0 0 0 0 0 0 0 0 0 0 0 0 0
0 0 0 0 0 0 0 0 0 0 0 0 0 0 0 0 0 0 0 0 0 0 0 0 0 0 0 0 0 0 0 0 0 0 0 0 0 0 0 0 0 0 0 0
0 0 0 0 0 0 0 0 0 0 0 0 0 0 0 0 0 0 0 0 0 0 0 0 0 0 0 0 0 0 0 0 0 0 0 0 0 0 0 0 0 0 0 0
0 0 0 0 0 0 0 0 0 0 0 0 0 0 0 0 0 0 0 0 0 0 0 0 0 0 0 0 0 0 0 0 0 0 0 0 0 0 0 0 0 0 0 0
0 0 0 0 0 0 0 0 0 0 0 0 0 0 0 0 0 0 0 0 0 0 0 0 0 0 0 0 0 0 0 0 0 0 0 0 0 0 0 0 0 0 0 0
0 0 0 0 0 0 0 0 0 0 0 0 0 0 0 0 0 0 0 0 0 0 0 0 0 0 0 0 0 0 0 0 0 0 0 0 0 0 0 0 0 0 0 0
0 0 0 0 0 0 0 0 0 0 0 0 0 0 0 0 0 0 0 0 0 0 0 0 0 0 0 0 0 0 0 0 0 0 0 0 0 0 0 0 0 0 0 0
0 0 0 0 0 0 0 0 0 0 0 0 0 0 0 0 0 0 0 0 0 0 0 0 0 0 0 0 0 0 0 0 0 0 0 0 0 0 0 0 0 0 0 0
0 0 0 0 0 0 0 0 0 0 0 0 0 0 0 0 0 0 0 0 0 0 0 0 0 0 0 0 0 0 0 0 0 0 0 0 0 0 0 0 0 0 0 0
0 0 0 0 0 0 0 0 0 0 0 0 0 0 0 0 0 0 0 0 0 0 0 0 0 0 0 0 0 0 0 0 0 0 0 0 0 0 0 0 0 0 0 0
0 0 0 0 0 0 0 0 0 0 0 0 0 0 0 0 0 0 0 0 0 0 0 0 0 0 0 0 0 0 0 0 0 0 0 0 0 0 0 0 0 0 0 0
0 0 0 0 0 0 0 0 0 0 0 0 0 0 0 0 0 0 0 0 0 0 0 0 0 0 0 0 0 0 0 0 0 0 0 0 0 0 0 0 0 0 0 0
0 0 0 0 0 0 0 0 0 0 0 0 0 0 0 0 0 0 0 -0 0 0 0 0 0 0 0 0 0 0 0 0 0 0 0 0 0 0 0 0 0 0 0 0
0 0 0 0 0 0 0 0 0 0 0 0 0 0 0 0 0 0 0 0 0 0 0 0 0 0 0 0 0 0 0 0 0 0 0 0 0 0 0 0 0 0 0 0
0 0 0 0 0 0 0 0 0 0 0 0 0 0 0 0 0 0 0 0 0 0 0 0 0 0 0 0 0 0 0 0 0 0 0 0 0 0 0 0 0 0 0 0
0 0 0 0 0 0 0 0 0 0 0 0 0 0 0 0 0 0 0 0 0 0 0 0 0 0 0 0 0 0 0 0 0 0 0 0 0 0 0 0 0 0 0 0
0 0 0 0 0 0 0 0 0 0 0 0 0 0 0 0 0 0 0 0 0 0 0 0 0 0 0 0 0 0 0 0 0 0 0 0 0 0 0 0 0 0 0 0
0 0 0 0 0 0 0 0 0 0 0 0 0 0 0 0 0 0 0 0 0 0 0 0 0 0 0 0 0 0 0 0 0 0 0 0 0 0 0 0 0 0 0 0
0 0 0 0 0 0 0 0 0 0 0 0 0 0 0 0 0 0 0 0 0 0 0 0 0 0 0 0 0 0 0 0 0 0 0 0 0 0 0 0 0 0 0 0
0 0 0 0 0 0 0 0 0 0 0 0 0 0 0 0 0 0 0 0 0 0 0 0 0 0 0 0 0 0 0 0 0 0 0 0 0 0 0 0 0 0 0 0
0 0 0 0 0 0 0 0 0 0 0 0 0 0 0 0 0 0 0 0 0 0 0 0 0 0 0 0 0 0 0 0 0 0 0 0 0 0 0 0 0 0 0 0
0 0 0 0 0 0 0 0 0 0 0 0 0 0 0 0 0 0 0 0 0 0 0 0 0 0 0 0 0 0 0 0 0 0 0 0 0 0 0 0 0 0 0 0
0 0 0 0 0 0 0 0 0 0 0 0 0 0 0 0 0 0 0 0 0 0 0 0 0 0 0 0 0 0 0 0 0 0 0 0 0 0 0 0 0 0 0 0
0 0 0 0 0 0 0 0 0 0 0 0 0 0 0 0 0 0 0 0 0 0 0 0 0 0 0 0 0 0 0 0 0 0 0 0 0 0 0 0 0 0 0 0
0 0 0 0 0 0 0 0 0 0 0 0 0 0 0 0 0 0 0 0 0 0 0 0 0 0 0 0 0 0 0 0 0 0 0 0 0 0 0 0 0 0 0 0
0 0 0 0 0 0 0 0 0 0 0 0 0 0 0 0 0 0 0 0 0 0 0 0 0 0 0 0 0 0 0 0 0 0 0 0 0 0 0 0 0 0 0 0
Wind_Speed
1 1 2 1 1 2 3 5 5 4 4 5 4 3 4 4 5 6 7 7 7 7 7 7 7 7 7 7 8 8 8 8 9 8 8 8 8 8 7 8 8 7 6 5
2 1 1 1 2 2 2 3 3 2 5 4 2 1 2 4 5 5 6 7 7 7 7 7 7 7 6 7 7 7 7 8 8 9 8 8 8 8 8 8 8 8 8 6
1 2 3 4 5 4 3 3 5 5 5 2 2 2 2 3 4 5 6 6 6 6 6 6 6 5 6 6 6 6 7 7 8 8 8 8 8 8 8 8 7 8 7 7
2 1 3 6 2 4 4 3 5 4 3 4 4 2 2 2 3 5 5 5 6 6 6 5 5 5 5 5 5 6 6 7 7 8 8 8 8 8 8 6 6 7 7 7
3 1 6 5 3 5 4 4 5 5 3 3 2 2 3 3 2 3 3 4 4 4 4 4 5 5 5 5 5 6 6 7 7 7 7 7 8 7 6 6 7 7 6 8
4 2 4 6 2 3 3 4 4 7 6 5 5 1 4 3 2 2 3 3 4 4 3 4 5 4 4 5 5 5 5 5 5 6 6 7 7 6 5 5 6 6 7 7
4 3 8 6 3 5 3 7 4 7 7 7 7 6 4 2 1 2 2 3 4 4 4 4 4 3 4 5 5 4 4 4 5 6 6 6 6 6 6 6 6 7 7 7
4 2 8 5 7 8 9 3 5 7 7 7 6 3 2 1 1 2 3 4 4 4 4 4 4 3 4 4 4 3 4 5 6 6 6 6 6 6 6 6 7 7 7 7
9 8 5 6 7 5 5 5 6 6 6 7 5 4 3 1 1 2 3 3 3 3 4 4 4 3 3 4 2 2 4 5 4 5 6 6 6 6 5 6 5 5 6 6
4 7 5 6 4 4 6 6 6 6 6 7 6 5 3 2 1 2 2 3 3 3 4 4 4 3 3 3 1 2 3 3 3 4 5 5 5 5 5 5 5 5 5 5
5 6 3 4 7 7 6 5 6 5 6 7 7 5 4 3 2 1 2 2 2 3 3 4 4 3 3 2 2 2 2 2 3 3 3 4 4 3 3 3 3 3 3 3
8 8 7 7 7 9 9 8 8 8 6 5 6 5 4 3 2 1 1 1 2 3 3 4 4 4 3 2 1 1 1 1 1 1 1 2 2 3 5 5 7 9 7 4
5 4 6 2 5 9 9 9 9 8 8 6 5 5 4 3 2 2 1 1 2 3 4 4 3 3 3 2 1 1 1 0 0 0 1 1 1 2 2 4 7 9 10 9
4 5 4 4 6 8 8 8 7 6 6 6 5 4 4 3 2 2 2 2 2 3 3 2 2 3 3 1 0 0 0 1 1 1 0 0 0 1 1 1 2 3 6 9
7 6 5 5 5 7 6 7 7 6 5 5 4 4 5 4 4 4 3 2 2 2 2 2 2 3 3 1 0 0 1 0 1 1 1 1 1 1 1 1 1 2 2 4
7 4 5 6 8 8 7 8 8 8 7 6 6 6 6 5 4 3 3 2 1 2 3 3 3 3 3 1 0 0 1 2 1 1 1 1 1 1 1 1 1 1 2 2
10 8 7 7 8 9 10 10 10 9 8 8 8 7 5 4 3 3 3 2 3 3 3 3 3 3 3 2 1 1 1 1 1 1 1 2 2 2 2 1 1 0 1 1
11 11 10 10 11 10 10 9 8 9 8 9 7 6 6 6 6 6 4 2 2 3 4 4 3 3 3 2 2 1 1 1 1 2 2 2 2 2 2 2 2 2 1 1
9 8 9 9 9 10 10 9 9 9 8 7 7 8 8 7 6 5 3 3 3 4 5 4 4 3 3 3 2 1 2 2 2 2 2 3 2 2 2 3 3 3 2 2
8 7 8 8 8 8 9 8 8 7 7 7 7 6 6 7 6 5 4 4 5 6 4 3 3 3 3 3 3 2 2 2 2 2 2 2 3 3 3 3 3 3 3 3
8 7 8 8 8 8 8 8 8 8 8 8 8 9 8 7 6 5 4 5 6 6 5 6 3 3 3 3 2 2 2 3 3 3 3 3 3 3 4 4 4 4 4 4
5 6 7 7 7 6 6 6 7 8 7 7 8 7 6 6 6 5 6 6 6 5 4 3 3 5 5 4 2 2 3 3 3 3 3 3 4 4 4 4 4 4 4 4
3 3 4 5 6 5 4 5 6 7 8 8 9 9 8 7 6 5 6 6 5 7 5 4 6 8 7 3 3 3 3 4 4 4 4 4 4 4 4 5 5 5 4 5
3 3 2 3 4 4 3 3 4 5 5 6 7 7 7 5 4 6 6 4 5 7 5 7 10 10 7 3 3 4 4 4 4 4 4 4 4 4 4 5 5 5 5 6
4 4 5 5 4 2 1 1 2 2 3 3 4 5 5 5 6 5 5 6 8 7 5 7 11 9 5 4 4 4 4 4 5 4 4 4 4 4 5 5 5 5 5 5
4 3 3 2 2 1 1 1 1 1 1 2 2 3 3 4 4 4 3 5 6 7 6 4 5 5 4 4 5 5 5 5 5 5 5 5 5 5 5 5 7 5 5 5
4 3 3 3 3 2 1 1 1 0 1 2 3 3 2 3 3 4 5 4 4 5 5 4 4 4 4 4 5 5 4 4 4 4 4 4 4 5 5 6 5 5 5 5
Wind_Direction
139 152 146 178 202 168 168 181 185 229 237 261 262 266 291 310 322 332 336 337 339 337 334 336 341 344 349 348 352 354 359 4 3 0 4 10 14 15 21 27 30 29 33 32
32 27 102 290 259 207 192 182 200 230 260 251 237 233 295 315 328 330 329 331 334 337 339 340 339 339 344 347 349 354 3 3 1 3 8 12 13 17 24 26 27 32 31 28
347 345 21 289 237 197 203 198 180 207 238 202 201 236 265 296 316 318 322 325 329 328 327 327 329 334 341 340 345 360 4 3 3 4 9 10 16 23 24 22 26 30 27 27
107 66 265 250 235 184 192 219 204 215 223 194 203 220 260 260 289 308 319 324 323 322 322 324 330 342 344 350 356 2 5 3 2 4 8 11 20 23 20 21 25 26 25 22
113 182 284 288 204 169 173 251 206 196 193 169 135 46 321 274 267 282 301 308 304 306 306 320 336 342 352 357 359 6 4 1 2 6 14 17 19 16 17 25 29 27 26 25
123 167 246 252 205 151 109 276 222 178 176 162 127 107 271 275 291 310 325 319 320 325 334 344 341 349 7 360 4 3 356 358 4 14 22 21 18 16 17 27 30 31 33 27
154 222 261 244 157 120 146 246 202 173 172 164 177 200 230 272 294 332 332 332 343 349 349 336 335 360 12 5 359 349 1 16 22 19 26 26 25 22 18 23 30 32 32 28
153 203 262 194 144 178 211 203 165 169 170 175 195 207 217 227 307 349 351 349 354 353 341 336 350 11 10 358 342 7 29 34 30 25 28 29 31 27 22 22 30 26 25 25
186 211 237 192 195 203 167 167 175 170 175 168 172 185 187 197 302 339 348 346 348 346 339 344 354 9 3 337 350 48 46 39 33 33 33 31 33 30 26 24 29 26 24 23
243 261 243 223 219 187 180 179 175 168 162 162 168 177 180 189 264 330 337 341 346 356 355 343 341 350 343 338 36 76 58 42 36 39 34 29 30 30 31 25 24 24 23 19
250 267 265 237 208 190 177 160 150 153 164 169 166 174 180 191 225 277 314 326 346 350 333 324 330 340 348 9 74 76 60 50 44 44 43 33 31 26 25 18 14 17 10 6
217 214 189 223 202 171 162 170 167 159 161 169 171 178 176 191 215 237 282 319 336 336 328 322 329 335 344 8 82 106 69 43 40 41 41 37 29 21 26 32 33 39 39 41
201 185 180 221 169 169 172 174 169 168 168 171 180 178 174 188 207 219 255 298 309 310 311 315 328 335 340 348 77 135 177 188 103 68 53 39 36 37 16 9 28 37 36 44
177 136 158 185 182 179 174 170 164 166 172 171 171 171 170 179 197 220 248 265 280 297 307 316 328 330 334 344 45 145 168 182 161 177 161 128 78 62 51 37 14 0 14 37
192 188 186 175 155 159 156 147 153 170 177 178 175 174 179 188 210 230 248 268 284 300 307 317 320 317 328 347 12 190 176 203 192 191 176 158 129 102 79 60 44 14 8 19
172 161 147 152 163 165 159 166 173 186 186 186 189 197 199 199 211 234 251 242 242 276 286 293 293 298 317 326 307 254 246 245 200 173 147 134 131 133 127 102 43 22 16 360
152 174 181 183 183 183 183 182 184 187 185 191 201 201 190 188 212 242 250 244 240 255 260 259 268 293 310 296 246 244 253 268 221 164 170 167 168 181 181 171 184 277 316 329
190 186 180 180 182 185 191 189 186 184 189 199 193 179 183 193 211 228 238 245 263 279 269 251 255 284 297 290 252 234 230 233 218 206 197 189 189 191 186 191 205 215 247 325
195 188 186 186 182 180 184 187 190 193 193 183 179 190 200 207 213 220 211 209 232 258 266 258 262 276 284 280 261 226 228 233 232 223 209 207 199 194 194 201 211 215 211 208
190 186 184 185 180 177 185 187 184 187 189 180 182 192 205 216 211 205 198 218 228 226 239 248 253 266 272 275 257 224 231 236 236 230 217 211 211 214 210 210 213 215 214 215
180 177 177 180 184 188 188 182 178 189 189 179 183 196 208 214 200 187 191 236 253 233 232 240 235 245 253 255 253 232 238 240 238 231 222 220 220 221 219 218 217 217 216 216
165 170 177 176 177 187 190 181 183 188 184 187 197 198 199 206 200 200 215 223 242 231 215 224 228 238 244 248 230 237 244 243 241 234 228 223 220 223 224 222 223 223 219 215
135 152 162 171 179 183 172 177 187 186 188 193 195 195 200 203 189 188 231 235 224 232 220 221 227 238 250 239 227 236 243 245 242 236 232 228 224 223 225 227 225 223 221 217
85 95 120 134 131 133 160 196 195 195 199 202 203 201 194 197 213 219 222 236 215 218 218 229 235 242 247 226 227 235 242 245 244 242 238 235 230 227 226 227 228 226 223 221
70 73 76 88 100 125 190 182 162 181 193 211 223 215 203 196 206 220 209 220 229 227 228 238 241 243 234 219 226 234 238 240 242 239 235 235 233 231 230 227 227 228 225 222
53 60 69 88 103 95 85 104 129 170 181 221 247 232 218 214 218 220 215 221 226 223 222 226 227 230 220 221 227 233 237 248 255 247 239 238 238 235 233 231 231 227 226 225
44 45 48 46 36 39 61 84 100 223 216 219 249 253 231 221 216 218 219 220 220 221 222 222 217 215 217 222 229 234 236 237 239 241 241 240 238 236 237 235 232 229 225 223